STARLINK-35553, 66120

Orbit data source: Space-Track

STARLINK-35553, 66120 is a payload satellite owned by SpaceX/Seattle (US) in LEO that was launched on Wed, 22 Oct 2025 UTC via an FALCON 9 launch vehicle from the Air Force Western Test Range (AFWTR). Payload-class satellites include a variety of spacecraft equipped with specific instruments for various scientific and technological missions. These include communications satellites like Starlink; space stations such as the ISS; scientific satellites like the Hubble; Earth observation satellites from companies like Planet Labs, Umbra, and HawkEye 360; GPS; miniature CubeSats for education and research; and military/defense satellites.

Loading next visibility...
Identifier
66120, 2025-237G
Orbit
LEO
Country
Flag of USUS
Related business
Manufacturer
SpaceX/Seattle
Mission
Operational spacecraft
Bus & Motor
STARLINK V2MO, Unknown motor
Mass
575 kg wet, ~530 kg dry
Launch date (UTC)
2025-10-22 (2 weeks ago)
Launch vehicle
FALCON 9
Launch site
Air Force Western Test Range (AFWTR)
Object type
Payload
Rocket body
Debris
Shape & HBR
Unknown shape, 17.7 m
Radar Cross Section
RCS unknown

Expand to show TLE details & history
Last TLE update: 6 hours ago

TLE from 6 hours ago
0 STARLINK-35553
1 66120U 25237G   25312.16668980 -.01839968  00000-0 -16988-1 0  9990
2 66120  53.1594 251.4269 0001121 102.6953 181.2423 15.70304619  3925
Epoch: 2025-11-08T04:00Z
TLE epoch observation values (Epoch: 2025-11-08T04:00:01.998Z)
Latitude
-51.13086°
Longitude
76.25302°
Altitude
376.46 km
Speed
7.683 km/s
True Right ascension
12h 15m 26s
True Declination
-50° 57' 12"
Sunlit
Object was in daylight at epoch
Visualization orbit readout
Latitude
Unknown
Longitude
Unknown
Altitude
Unknown
Speed
Unknown
Apparent Right ascension
Unknown
Apparent Declination
Unknown
Sunlit
N/A
Visualization observer readout
Local Sidereal Time
05:56:42
Azimuth
Unknown
Elevation
Unknown
Doppler factor
Unknown
Orbital elements
Apogee altitude
359.042 km
Perigee altitude
357.531 km
Semi-major axis
6,736.424 km
Eccentricity
0.00011
Inclination
53.1594°
RAAN
251.4269°
Arg. of periapsis
102.6953°
True anomaly
181.24202°
Mean anomaly
181.2423°
Eccentric anomaly
181.24216°
Mean motion
3.92554 °/min
Orbital period
91.71 mins
BSTAR
-0.016988
Loading maneuver chart data...
Computing Atmospheric mass density...
Loading historical data...
Loading historical data...
Loading historical data...
Loading historical data...
Loading historical data...
Loading historical data...
Loading historical data...

Documentation

Showing up to 5 results
|